Weather History for Andalusia, AL

Change the Weather History Date:

Saturday, January 21, 2012

  Actual Average (KCEW) Record (KCEW)
Temperature  
Mean Temperature 72 °F -  
Max Temperature 80 °F 60 °F 80 °F (1982)
Min Temperature 64 °F 37 °F 21 °F (1977)
Cooling Degree Days 7    
Growing Degree Days 22 (Base 50)    
Moisture  
Dew Point 63 °F    
Average Humidity 80    
Maximum Humidity 90    
Minimum Humidity 54    
Precipitation  
Precipitation 0.12 in - - ()
Sea Level Pressure  
Sea Level Pressure 29.99 in    
Wind  
Wind Speed 5 mph (SW)    
Max Wind Speed 14 mph    
Max Gust Speed 22 mph    
Visibility 9 miles    
Events Rain , Thunderstorm    
Averages and records for this station are not official NWS values.
T = Trace of Precipitation, MM = Missing Value Source: NWS Daily Summary

Daily Weather History Graph

Daily Weather History Graph

Search for Another Location

Airport:

Trip Planner

Search our weather history database for the weather conditions in past years. The results will help you decide how hot, cold, wet, or windy it might be!

Date:

Astronomy

Jan. 21, 2012 Rise Set
Actual Time 6:43 AM CST 5:10 PM CST
Civil Twilight 6:17 AM CST 5:36 PM CST
Nautical Twilight 5:48 AM CST 6:05 PM CST
Astronomical Twilight 5:19 AM CST 6:34 PM CST
Moon 5:11 AM CST (1/21) 3:47 PM CST (1/21)
Length of Visible Light 11h 18m
Length of Day
10h 26m
Waning Crescent, 3% of the Moon is Illuminated
Jan 21
Waning Crescent
Jan 23
New
Jan 30
First Quarter
Feb 7
Full
Feb 14
Last Quarter

Hourly Weather History & Observations

Time (CST) Temp. Heat Index Dew Point Humidity Pressure Visibility Wind Dir Wind Speed Gust Speed Precip Events Conditions
12:56 AM 68.0 °F - 64.0 °F 87% 30.02 in 10.0 mi Variable 3.5 mph - N/A   Overcast
1:38 AM 66.2 °F - 62.6 °F 88% 30.03 in 10.0 mi Variable 5.8 mph - N/A   Mostly Cloudy
1:56 AM 66.9 °F - 63.0 °F 87% 30.01 in 10.0 mi SSW 6.9 mph - N/A   Overcast
2:04 AM 66.2 °F - 62.6 °F 88% 30.03 in 10.0 mi SSW 5.8 mph - N/A   Overcast
2:27 AM 68.0 °F - 62.6 °F 83% 30.03 in 10.0 mi SW 4.6 mph - N/A   Overcast
3:56 AM 66.9 °F - 63.0 °F 87% 30.00 in 10.0 mi SSW 4.6 mph - N/A   Mostly Cloudy
4:04 AM 66.2 °F - 62.6 °F 88% 30.00 in 10.0 mi SSW 4.6 mph - N/A   Scattered Clouds
4:56 AM 66.0 °F - 62.1 °F 87% 29.99 in 10.0 mi Calm Calm - N/A   Scattered Clouds
5:56 AM 64.9 °F - 62.1 °F 90% 29.99 in 10.0 mi SSW 4.6 mph - N/A   Clear
6:53 AM 66.2 °F - 62.6 °F 88% 30.00 in 10.0 mi Variable 6.9 mph - N/A   Partly Cloudy
6:56 AM 66.9 °F - 62.1 °F 84% 29.99 in 10.0 mi SW 5.8 mph - N/A   Partly Cloudy
7:16 AM 66.2 °F - 62.6 °F 88% 30.00 in 10.0 mi SW 9.2 mph - N/A   Mostly Cloudy
7:56 AM 68.0 °F - 63.0 °F 84% 30.00 in 10.0 mi WSW 6.9 mph - N/A   Overcast
8:56 AM 69.1 °F - 63.0 °F 81% 30.02 in 10.0 mi WSW 9.2 mph 16.1 mph N/A   Overcast
9:14 AM 69.8 °F - 62.6 °F 78% 30.03 in 10.0 mi WSW 11.5 mph 18.4 mph N/A   Overcast
9:23 AM 69.8 °F - 62.6 °F 78% 30.03 in 10.0 mi SW 8.1 mph 18.4 mph N/A   Mostly Cloudy
9:56 AM 72.0 °F - 63.0 °F 73% 30.02 in 10.0 mi SW 8.1 mph 18.4 mph N/A   Mostly Cloudy
10:56 AM 73.9 °F - 63.0 °F 68% 29.99 in 10.0 mi West 11.5 mph 17.3 mph N/A   Overcast
11:13 AM 73.4 °F - 62.6 °F 69% 29.99 in 10.0 mi WSW 11.5 mph 18.4 mph N/A   Overcast
11:45 AM 75.2 °F - 62.6 °F 65% 29.97 in 10.0 mi WSW 11.5 mph 21.9 mph N/A   Overcast
11:56 AM 75.9 °F - 63.0 °F 64% 29.96 in 10.0 mi West 13.8 mph 21.9 mph N/A   Overcast
1:56 PM 80.1 °F 81.2 °F 62.1 °F 54% 29.92 in 10.0 mi WSW 9.2 mph 21.9 mph N/A   Partly Cloudy
2:56 PM 78.1 °F - 61.0 °F 56% 29.93 in 10.0 mi WSW 5.8 mph 17.3 mph N/A   Partly Cloudy
3:45 PM 75.2 °F - 60.8 °F 61% 29.95 in 10.0 mi WSW 4.6 mph - N/A Thunderstorm Thunderstorm
3:56 PM 75.9 °F - 61.0 °F 60% 29.94 in 10.0 mi West 9.2 mph - 0.00 in Rain , Thunderstorm Light Thunderstorms and Rain
4:08 PM 73.4 °F - 62.6 °F 69% 29.94 in 8.0 mi SW 4.6 mph - 0.01 in Rain Light Rain
4:56 PM 71.1 °F - 64.0 °F 78% 29.95 in 4.0 mi WNW 3.5 mph - 0.05 in Rain Light Rain
5:23 PM 69.8 °F - 64.4 °F 83% 29.97 in 10.0 mi North 8.1 mph - 0.00 in   Mostly Cloudy
5:56 PM 69.1 °F - 63.0 °F 81% 29.97 in 10.0 mi NNE 6.9 mph - 0.00 in   Mostly Cloudy
6:39 PM 66.2 °F - 62.6 °F 88% 29.99 in 10.0 mi Calm Calm - N/A   Mostly Cloudy
6:56 PM 66.9 °F - 62.1 °F 84% 29.99 in 10.0 mi Calm Calm - 0.00 in Rain Light Rain
7:56 PM 66.0 °F - 62.1 °F 87% 30.01 in 8.0 mi Calm Calm - 0.00 in   Overcast
8:03 PM 66.2 °F - 62.6 °F 88% 30.01 in 7.0 mi Calm Calm - 0.00 in Rain Light Rain
8:45 PM 66.2 °F - 62.6 °F 88% 30.01 in 2.5 mi SSE 5.8 mph - 0.07 in Rain Rain
8:53 PM 66.2 °F - 62.6 °F 88% 30.01 in 6.0 mi SSE 3.5 mph - 0.07 in Rain Light Rain
8:56 PM 66.0 °F - 63.0 °F 90% 30.01 in 7.0 mi SSE 4.6 mph - 0.07 in Rain Light Rain
9:37 PM 66.2 °F - 62.6 °F 88% 30.02 in 8.0 mi Calm Calm - 0.00 in   Overcast
9:56 PM 66.0 °F - 62.1 °F 87% 30.01 in 7.0 mi Calm Calm - 0.00 in   Overcast
10:56 PM 64.9 °F - 62.1 °F 90% 30.01 in 6.0 mi Calm Calm - N/A   Overcast
11:56 PM 64.9 °F - 62.1 °F 90% 30.00 in 6.0 mi Calm Calm - N/A   Overcast